Presure
168 143 158 161 159 155 160 165 163 161 167 170 172 173 179 180 173 178 166 173 187 187 181 192 183 182 186 184 192 227 200 217 229 227 223 221 217 216 218 220 217 211 215
157 187 179 175 173 171 168 168 168 170 172 180 182 183 182 185 187 189 181 175 177 192 182 192 183 197 188 201 212 234 222 215 204 204 221 219 218 199 225 214 209 206 200
186 172 163 167 177 187 186 183 179 181 179 182 177 182 180 160 183 187 160 181 195 197 183 191 179 219 229 196 189 202 180 169 230 177 174 170 179 204 195 205 199 206 199
185 186 184 189 187 175 144 151 181 187 189 181 180 182 179 185 193 150 192 202 172 166 174 176 173 192 181 189 173 185 204 170 212 207 210 223 215 207 205 201 199 199 199
185 180 177 167 191 191 194 191 195 185 176 179 184 183 182 171 192 157 180 192 178 193 151 209 227 196 192 159 186 181 190 192 191 194 196 194 197 202 193 193 195 194 195
169 164 164 173 183 187 185 168 172 186 187 189 193 190 192 186 191 194 189 194 164 191 180 150 177 206 180 181 194 220 211 194 222 222 227 230 237 240 249 242 232 226 223
169 158 159 158 160 188 179 187 188 182 181 180 183 196 198 192 158 196 217 194 193 173 222 217 214 196 199 225 236 238 250 266 257 249 248 246 242 239 239 239 235 231 229
195 179 196 184 170 171 182 184 195 194 175 174 201 175 177 229 210 182 190 239 221 227 220 223 214 223 242 258 257 270 292 283 276 277 274 257 252 250 243 232 229 224 227
191 190 199 182 181 178 178 174 178 171 169 183 190 196 190 198 204 201 190 189 213 217 182 223 238 239 288 283 286 317 313 321 306 307 287 266 268 267 256 245 235 231 228
209 200 193 194 195 192 189 186 195 204 206 209 209 207 216 205 207 225 218 219 212 181 271 101 287 276 267 269 273 258 263 273 265 267 267 279 294 254 248 259 258 245 230
217 215 205 201 206 211 214 218 218 230 232 211 203 203 230 221 220 215 214 234 270 259 270 268 265 268 254 271 280 276 262 271 301 247 228 236 252 263 283 256 248 234 236
218 218 221 222 220 217 215 218 220 211 216 242 224 218 213 223 220 225 253 269 247 266 253 265 277 252 242 268 355 273 212 358 236 227 339 329 308 305 294 263 283 244 234
219 213 211 211 208 207 213 214 222 240 213 192 223 207 224 229 225 260 255 251 254 263 270 254 250 247 248 294 263 370 321 278 354 351 353 321 306 299 289 267 258 282 241
221 214 212 213 215 218 232 229 218 207 215 160 227 228 229 258 258 276 271 248 248 251 255 236 241 285 263 271 377 410 344 247 327 323 342 343 323 304 291 281 254 278 271
220 218 219 224 226 227 226 225 219 225 225 221 248 255 258 282 274 258 244 242 271 251 237 254 257 227 255 265 252 433 352 182 326 308 310 314 330 307 318 308 266 266 274
244 224 223 221 218 221 222 226 221 224 240 263 259 278 273 264 252 243 285 271 250 234 248 272 253 232 219 219 266 318 310 353 335 318 308 309 161 298 296 295 288 276 270
247 250 246 234 231 230 237 261 257 261 251 276 275 266 255 248 263 275 265 251 246 250 269 243 246 238 253 257 235 246 280 300 290 302 345 335 330 322 313 325 287 297 267
241 244 246 249 252 249 252 257 254 270 274 258 255 250 262 264 260 268 277 248 255 257 233 228 248 264 261 259 265 249 236 242 264 280 285 277 191 281 285 290 284 273 265
250 249 245 246 246 248 252 246 272 254 244 245 256 290 280 249 265 277 266 258 259 241 230 210 263 253 251 251 250 245 246 246 246 230 231 235 245 251 252 257 255 257 248
238 239 243 249 244 238 260 266 249 242 240 240 295 274 258 267 270 277 267 257 255 234 215 209 217 238 240 239 239 242 244 246 244 242 239 238 229 226 224 220 219 216 222
238 267 257 251 250 249 256 244 239 237 276 239 277 254 268 269 248 251 261 218 208 217 217 222 221 241 237 241 243 241 240 239 239 238 234 232 232 230 230 230 229 230 228
248 243 238 238 244 247 231 237 229 257 265 253 267 239 249 283 283 251 235 235 234 221 214 223 216 212 225 235 234 231 237 239 238 237 233 230 230 227 224 222 224 225 218
235 236 236 246 237 235 235 225 231 256 262 250 273 204 228 227 230 232 237 205 236 221 218 217 213 213 205 227 229 225 225 224 223 225 226 224 225 222 224 221 215 213 222
240 246 240 235 241 238 221 224 242 248 259 265 243 284 244 225 226 237 233 221 197 228 219 212 216 218 210 213 214 222 221 220 220 223 219 219 216 221 219 217 215 219 242
240 234 232 240 226 222 220 216 242 249 250 256 264 254 289 251 243 238 236 214 232 239 220 217 215 214 219 214 215 219 218 217 218 218 217 218 219 223 216 229 229 252 256
235 230 239 227 236 221 215 235 236 238 240 249 202 277 256 263 262 246 240 236 234 233 239 221 219 220 212 205 216 217 215 210 215 211 212 214 225 213 227 236 243 258 271
Wind_Speed
105 63 83 91 87 78 92 103 103 95 102 105 107 106 106 104 97 101 81 91 105 104 97 104 96 93 102 99 99 102 93 95 90 88 86 85 87 87 84 82 81 78 76
76 110 111 113 110 107 101 100 99 100 103 106 105 104 106 108 107 107 95 86 91 106 94 104 96 107 97 102 101 92 94 92 88 86 86 84 84 86 82 80 80 80 80
112 99 90 90 103 108 109 110 108 107 104 101 96 100 97 80 106 103 75 94 103 104 93 95 91 99 94 93 92 99 91 87 90 87 86 84 86 87 86 85 86 84 83
106 109 109 108 108 101 69 76 104 107 106 100 95 96 91 98 106 80 103 108 82 78 83 84 83 94 93 92 88 96 101 91 95 93 94 92 89 91 91 91 89 87 88
102 101 98 84 104 106 109 107 110 106 91 92 99 98 93 81 101 77 89 100 90 96 75 106 103 94 95 88 92 92 100 98 97 97 97 95 95 93 93 93 93 91 92
86 81 82 90 100 104 103 85 88 102 103 105 108 103 106 96 101 103 97 102 85 99 95 76 93 107 91 93 97 101 102 100 106 107 110 108 109 104 97 97 96 96 95
86 77 79 79 81 105 96 103 103 99 98 95 96 108 110 105 79 104 108 101 101 91 104 102 107 108 108 108 112 113 112 108 105 106 107 107 106 102 100 98 95 92 90
102 96 104 100 88 89 97 100 107 107 91 90 104 89 90 103 107 96 101 97 102 98 100 103 109 115 119 117 112 109 105 103 105 106 107 106 106 103 103 100 99 95 91
99 98 102 94 94 95 95 94 95 90 88 99 103 104 102 103 103 105 101 102 98 102 99 112 104 105 97 97 97 87 89 87 88 90 100 102 101 101 102 99 96 93 89
106 103 98 98 99 98 98 99 103 104 103 103 104 101 101 102 101 95 95 98 103 104 97 39 87 89 96 97 94 106 106 105 103 102 102 97 92 100 98 95 90 90 91
103 102 100 99 100 102 104 103 102 97 99 98 99 96 94 96 95 96 94 112 95 93 88 87 88 88 95 95 97 100 101 99 106 94 82 97 103 95 92 92 88 85 80
101 98 99 99 98 95 94 97 99 94 93 92 99 93 88 99 98 105 104 86 89 80 86 81 78 87 88 91 73 81 70 64 86 89 82 85 84 78 80 85 82 84 87
105 98 95 95 94 93 98 96 96 93 90 82 95 85 104 107 101 88 85 81 77 74 69 77 77 82 83 82 77 46 54 61 38 42 61 72 79 74 74 82 81 77 84
103 103 101 101 104 105 97 97 99 83 91 60 104 105 107 94 89 74 67 70 74 72 72 66 68 66 73 75 54 38 32 41 26 31 42 53 62 64 62 60 69 75 80
97 98 99 98 96 96 97 96 97 102 101 99 100 97 91 71 66 67 69 70 55 62 62 64 63 61 61 65 67 30 23 46 25 28 28 29 38 46 51 54 78 75 70
91 100 101 100 96 97 96 101 95 100 103 79 85 70 63 63 63 66 49 53 57 53 60 54 52 50 53 54 54 44 41 18 19 23 21 22 53 34 42 53 59 62 65
70 75 89 98 100 102 99 81 82 74 76 64 61 61 61 60 53 48 51 49 50 53 49 46 50 50 51 49 54 42 42 36 34 31 11 6 12 23 27 33 45 50 55
69 71 71 73 72 73 74 70 69 55 51 60 59 57 51 48 49 48 45 45 47 45 41 43 43 42 42 41 40 41 39 38 33 31 29 25 32 13 12 16 23 31 38
59 61 63 64 65 66 62 62 48 48 56 57 52 42 41 48 43 44 43 40 39 34 37 41 35 38 39 39 36 36 35 33 32 31 27 23 19 16 14 16 19 24 31
58 60 62 57 60 61 52 44 43 48 52 50 37 38 40 38 38 37 34 34 32 33 36 40 42 37 37 37 36 33 29 26 23 19 18 18 21 22 24 28 32 37 41
56 48 44 47 48 47 41 40 45 45 34 44 34 34 33 33 33 31 28 30 33 35 38 39 40 33 35 34 33 33 33 33 32 31 30 29 29 30 32 34 37 42 47
42 42 44 47 45 37 39 42 43 37 32 33 31 31 29 31 30 27 28 30 31 36 39 38 39 41 39 36 35 36 36 35 34 34 34 35 37 39 41 44 47 51 54
43 45 45 41 38 35 35 41 39 34 31 32 30 37 30 29 30 30 29 34 32 37 40 39 40 40 43 37 36 38 38 39 40 41 42 42 44 45 47 49 52 55 62
44 42 40 39 36 33 39 38 35 32 30 29 32 30 29 32 32 31 32 35 38 38 40 41 40 41 42 43 42 40 41 42 43 43 44 46 46 50 51 53 57 62 72
40 41 41 37 35 36 37 38 28 27 28 28 29 31 30 31 32 33 34 38 37 38 40 41 42 42 42 44 45 44 45 45 46 48 51 54 56 58 58 65 67 77 80
42 42 39 36 35 37 37 32 29 26 24 27 39 32 33 33 34 35 36 37 39 41 42 42 43 43 44 46 47 47 48 49 51 53 56 58 63 61 68 74 78 82 86
Wind_Direction
244 249 250 252 254 257 258 260 261 264 266 267 269 272 273 274 276 279 282 283 283 285 289 289 289 289 290 290 290 293 290 291 291 290 290 290 290 291 291 289 290 291 291
245 244 247 250 252 255 257 260 263 265 267 267 268 270 273 275 276 277 280 284 284 285 288 288 290 290 287 290 293 292 292 290 290 289 289 289 289 288 290 289 290 289 288
244 248 251 254 255 254 256 258 262 263 266 268 272 273 274 277 279 281 280 282 283 285 285 286 286 289 289 288 289 292 289 286 291 286 287 286 286 287 287 287 286 287 287
245 246 250 251 254 256 257 259 262 264 266 269 272 275 276 278 277 283 282 283 282 280 281 282 282 285 285 287 288 289 291 289 289 288 287 288 287 287 287 285 285 286 287
244 248 252 256 253 255 256 259 261 265 271 273 275 276 278 278 281 276 283 286 286 289 281 291 289 285 286 283 285 285 286 286 286 285 284 284 282 281 282 281 283 284 285
250 251 254 259 258 258 260 266 269 269 271 273 274 276 277 281 282 284 285 287 285 288 289 287 287 288 285 286 287 285 283 285 287 287 285 283 283 282 280 279 279 280 282
249 249 252 255 258 259 263 265 268 271 272 275 277 277 278 280 281 284 285 286 288 286 289 289 289 287 286 292 291 289 288 284 282 282 281 280 280 280 280 279 278 279 279
247 250 250 255 260 264 264 266 266 269 271 275 273 277 278 282 280 284 285 287 286 291 291 294 286 291 289 288 288 286 283 280 280 278 275 275 275 275 275 276 276 277 278
249 251 252 256 259 262 265 266 268 269 271 274 275 276 279 281 282 282 285 285 287 295 289 292 288 289 289 287 285 285 283 280 275 276 271 271 270 268 268 270 271 274 277
248 251 254 256 258 260 262 264 265 267 270 271 275 278 279 281 283 289 290 293 294 286 290 282 289 286 286 285 281 286 285 279 281 276 272 269 264 267 268 265 263 263 269
250 250 252 255 258 260 261 264 265 267 273 272 273 276 283 285 290 289 291 292 291 291 290 289 289 287 289 287 288 285 285 283 274 276 282 280 273 268 258 262 263 265 264
252 254 257 260 261 263 264 266 269 267 273 273 282 284 282 287 292 292 292 291 291 290 290 289 288 294 294 294 296 293 291 277 282 285 257 256 258 256 254 260 255 257 260
253 256 258 260 262 264 266 269 270 270 277 280 280 281 286 289 291 290 290 289 289 289 288 293 295 297 299 310 305 290 287 289 265 265 253 250 252 253 250 253 256 250 254
253 256 259 261 262 266 265 266 274 272 279 281 283 284 287 288 289 289 288 289 289 288 291 299 299 313 309 316 325 300 281 294 273 278 262 249 247 248 247 242 251 249 247
250 253 256 258 260 262 265 267 275 273 278 281 282 283 287 287 288 288 289 291 284 292 299 300 306 306 316 325 326 321 315 295 281 273 268 258 245 243 243 235 239 252 248
242 249 252 256 261 264 268 269 274 276 278 281 283 282 284 288 290 290 287 285 290 298 299 307 308 309 312 318 340 11 20 354 301 289 278 263 274 252 245 240 241 245 248
243 246 249 253 257 261 265 270 273 276 279 279 278 283 287 290 287 289 286 288 294 296 306 305 310 314 321 326 323 343 15 20 28 33 27 354 286 265 259 254 247 240 249
243 248 252 256 260 263 267 269 273 280 279 278 283 288 286 285 288 288 288 288 295 300 298 305 312 318 323 332 345 338 338 346 18 28 26 24 294 356 311 277 266 265 268
247 251 254 257 260 264 268 273 281 275 275 281 286 285 282 287 286 287 288 292 296 298 303 307 314 318 323 330 338 340 347 352 357 339 345 350 5 3 342 325 301 290 279
247 252 256 258 261 267 272 280 274 273 277 284 293 287 287 285 287 290 288 292 296 299 304 309 313 321 327 333 334 338 339 342 344 345 335 331 313 310 306 299 295 290 287
250 253 251 257 261 266 275 274 273 276 295 284 293 293 288 284 287 290 288 297 297 303 306 309 315 322 325 328 331 334 337 338 341 340 336 333 329 320 315 310 305 303 300
236 244 250 254 263 268 268 271 276 289 293 286 290 291 298 286 288 288 293 293 294 300 304 309 315 318 323 329 333 334 336 336 334 332 328 325 323 319 316 314 312 309 305
244 246 253 256 262 264 269 271 280 291 297 285 298 281 287 291 293 292 292 295 294 299 301 307 312 315 316 324 325 326 329 330 330 328 326 322 319 316 313 312 310 307 306
243 244 250 255 262 265 264 274 282 289 303 301 285 296 285 287 289 291 292 294 300 293 300 307 308 310 312 316 320 322 322 322 321 320 316 313 312 311 310 309 307 307 312
238 244 251 257 258 259 267 275 285 298 301 306 304 295 289 286 287 289 289 294 292 289 299 303 305 309 310 314 316 318 317 316 315 314 314 315 314 315 313 316 314 315 316
239 246 249 252 259 259 267 272 279 290 303 313 283 308 295 289 285 286 288 291 293 294 292 299 301 304 310 310 311 311 311 311 312 313 314 313 315 314 317 318 317 318 318